This demonstration page uses our WeatherBlox Daily Observations layout. Learn more.

Left ArrowRight Arrow

39.51506, -84.39828

Hourly Observations for March 20, 2017

Temp ( °F °C ) Dew Point ( °F °C ) Humidity (%) Winds ( mph kmh ) Pressure ( in mb ) Visibility ( mi km ) Precip ( " mm )
12:15 am 00:15 Clear 32 0 27 -2.7 82 82 Calm 30.30 1026 10 16 0.00 0.00
12:35 am 00:35 Clear 32 0 27 -2.9 81 81 Calm 30.30 1026 10 16 0.00 0.00
12:55 am 00:55 Clear 32 0 27 -3 80 80 Calm 30.30 1026 10 16 0.00 0.00
1:15 am 01:15 Clear 32 0 27 -2.8 82 82 Calm 30.30 1026 10 16 0.00 0.00
1:35 am 01:35 Clear 32 0 27 -3 80 80 Calm 30.30 1026 10 16 0.00 0.00
1:55 am 01:55 Clear 32 0 27 -2.9 81 81 Calm 30.30 1026 10 16 0.00 0.00
2:15 am 02:15 Clear 30 -1.3 25 -4.1 81 81 Calm 30.27 1025 10 16 0.00 0.00
2:35 am 02:35 Clear 32 0 27 -2.7 82 82 Calm 30.27 1025 10 16 0.00 0.00
2:55 am 02:55 Hazy 30 -1.1 25 -3.7 83 83 Calm 30.24 1024 5 8 0.00 0.00
3:15 am 03:15 Clear 32 0 27 -2.6 83 83 Calm 30.24 1024 7 11 0.00 0.00
3:35 am 03:35 Clear 34 1.2 28 -2 79 79 S 3 6 30.24 1024 10 16 0.00 0.00
3:55 am 03:55 Clear 37 2.6 29 -1.7 74 74 SSE 6 9 30.21 1023 10 16 0.00 0.00
4:15 am 04:15 Clear 37 2.6 29 -1.8 73 73 S 5 7 30.21 1023 10 16 0.00 0.00
4:35 am 04:35 Clear 37 2.6 28 -2 72 72 Calm 30.21 1023 10 16 0.00 0.00
4:55 am 04:55 Clear 37 2.6 29 -1.8 73 73 Calm 30.21 1023 10 16 0.00 0.00
5:15 am 05:15 Clear 34 1.2 28 -2.1 79 79 Calm 30.21 1023 10 16 0.00 0.00
5:35 am 05:35 Mostly Cloudy 34 1.2 28 -2 79 79 Calm 30.21 1023 10 16 0.00 0.00
5:55 am 05:55 Mostly Cloudy 37 2.6 30 -1.2 76 76 ESE 3 6 30.21 1023 10 16 0.00 0.00
6:15 am 06:15 Mostly Cloudy 37 2.6 29 -1.8 73 73 Calm 30.21 1023 10 16 0.00 0.00
6:35 am 06:35 Cloudy 37 2.6 31 -0.5 80 80 Calm 30.21 1023 10 16 0.00 0.00
6:55 am 06:55 Cloudy 39 3.9 32 0 76 76 Calm 30.18 1022 10 16 0.00 0.00
7:15 am 07:15 Cloudy 39 4.1 30 -1.3 68 68 E 5 7 30.21 1023 10 16 0.00 0.00
7:35 am 07:35 Cloudy 40 4.3 30 -1 69 69 NNW 8 13 30.24 1024 10 16 0.00 0.00
7:55 am 07:55 Cloudy with Light Snow 39 4 31 -0.5 73 73 NW 9 15 30.30 1026 4 6 0.00 0.00
8:15 am 08:15 Cloudy with Light Snow 39 4 33 0.4 78 78 Calm 30.30 1026 4 6 0.00 0.00
8:35 am 08:35 Cloudy with Light Snow 37 2.6 32 -0.2 82 82 NNE 6 9 30.30 1026 3 5 0.00 0.00
8:55 am 08:55 Cloudy with Light Snow 37 2.9 32 0 81 81 Calm 30.30 1026 3 5 0.00 0.00
9:15 am 09:15 Cloudy with Light Snow 37 2.6 32 0 83 83 SSE 3 6 30.27 1025 2 2 0.00 0.00
9:35 am 09:35 Cloudy with Light Snow 39 3.9 34 1.2 83 83 SE 3 6 30.24 1024 2 2 0.00 0.00
9:55 am 09:55 Cloudy with Light Snow 39 4 35 1.5 84 84 S 5 7 30.24 1024 2 2 0.00 0.00
10:15 am 10:15 Cloudy 39 4 34 1.3 83 83 SSW 6 9 30.24 1024 7 11 0.00 0.00
10:35 am 10:35 Cloudy with Light Snow 39 4.1 34 1.3 82 82 SSW 8 13 30.21 1023 5 8 0.00 0.00
10:55 am 10:55 Cloudy with Light Snow 39 4 34 1.1 82 82 SSW 8 13 30.24 1024 3 5 0.00 0.00
11:15 am 11:15 Cloudy with Light Snow 40 4.2 35 1.4 82 82 SSE 8 13 30.15 1021 2 3 0.00 0.00
11:35 am 11:35 Cloudy with Light Snow 42 5.3 36 2.3 81 81 S 13 20 30.09 1019 5 8 0.00 0.00
11:55 am 11:55 Cloudy 42 5.5 37 2.5 81 81 Calm 30.12 1020 10 16 0.00 0.00
12:15 pm 12:15 Mostly Cloudy 43 6.2 38 3.1 81 81 Calm 30.09 1019 10 16 0.00 0.00
12:35 pm 12:35 Sunny 47 8.2 41 4.8 79 79 SSE 3 6 30.09 1019 10 16 0.00 0.00
12:55 pm 12:55 Sunny 49 9.6 43 5.9 78 78 S 12 19 30.06 1018 10 16 0.00 0.00
1:15 pm 13:15 Sunny 49 9.6 42 5.3 75 75 S 12 19 30.06 1018 10 16 0.00 0.00
1:35 pm 13:35 Sunny 52 10.9 42 5.8 71 71 S 10 17 30.06 1018 10 16 0.00 0.00
1:55 pm 13:55 Sunny 51 10.8 41 5.1 68 68 S 14 22 30.03 1017 10 16 0.00 0.00
2:15 pm 14:15 Sunny 55 12.5 42 5.7 64 64 SSW 10 17 30.03 1017 10 16 0.00 0.00
2:35 pm 14:35 Partly Cloudy 56 13.5 42 5.8 60 60 S 14 22 30.00 1016 10 16 0.00 0.00
2:55 pm 14:55 Sunny 57 13.8 40 4.3 53 53 S 15 24 30.00 1016 10 16 0.00 0.00
3:15 pm 15:15 Partly Cloudy 57 13.8 39 4.1 52 52 S 8 13 30.00 1016 10 16 0.00 0.00
3:35 pm 15:35 Mostly Cloudy 55 12.5 37 2.8 52 52 SW 5 7 30.00 1016 10 16 0.00 0.00
3:55 pm 15:55 Cloudy 55 12.5 38 3.5 55 55 Calm 30.00 1016 10 16 0.00 0.00
4:15 pm 16:15 Mostly Cloudy 55 12.5 38 3.6 55 55 W 5 7 30.00 1016 10 16 0.00 0.00
4:35 pm 16:35 Cloudy 55 12.5 39 4.1 57 57 Calm 29.97 1015 10 16 0.00 0.00
4:55 pm 16:55 Cloudy with Heavy Rain 54 12.1 43 5.9 66 66 NW 8 13 30.03 1017 3 5 0.00 0.00
5:15 pm 17:15 Cloudy with Heavy Snow 49 9.6 42 5.7 77 77 SE 5 7 30.03 1017 1 2 0.00 0.00
5:35 pm 17:35 Cloudy with Light Snow 49 9.6 44 6.5 81 81 SE 8 13 30.00 1016 3 4 0.00 0.00
5:55 pm 17:55 Cloudy with Light Snow 49 9.6 43 6.2 80 80 SE 12 19 29.94 1014 4 6 0.00 0.00
6:15 pm 18:15 Cloudy with Light Snow 49 9.6 43 6.1 79 79 S 5 7 29.94 1014 7 11 0.00 0.00
6:35 pm 18:35 Partly Cloudy 49 9.6 43 6.1 79 79 Calm 29.97 1015 10 16 0.00 0.00
6:55 pm 18:55 Mostly Cloudy 49 9.6 43 6.2 80 80 Calm 30.00 1016 10 16 0.00 0.00
7:15 pm 19:15 Cloudy 49 9.6 43 6.3 80 80 Calm 29.97 1015 10 16 0.00 0.00
7:35 pm 19:35 Cloudy 49 9.6 44 6.5 81 81 Calm 30.00 1016 10 16 0.00 0.00
7:55 pm 19:55 Cloudy 49 9.6 44 6.6 82 82 Calm 30.00 1016 10 16 0.00 0.00
8:15 pm 20:15 Cloudy 49 9.6 44 6.8 83 83 NE 5 7 30.00 1016 7 11 0.00 0.00
8:35 pm 20:35 Cloudy 49 9.6 44 6.8 83 83 NNE 6 9 30.00 1016 7 11 0.00 0.00
8:55 pm 20:55 Cloudy 49 9.6 44 6.8 83 83 NNE 3 6 30.00 1016 10 16 0.00 0.00
9:15 pm 21:15 Cloudy 49 9.6 44 6.6 82 82 Calm 30.03 1017 10 16 0.00 0.00
9:35 pm 21:35 Cloudy 49 9.6 44 6.7 82 82 NNE 3 6 30.00 1016 7 11 0.00 0.00
9:55 pm 21:55 Cloudy 49 9.6 44 6.7 82 82 NNE 3 6 30.00 1016 10 16 0.00 0.00
10:15 pm 22:15 Cloudy 49 9.6 44 6.8 83 83 Calm 30.00 1016 7 11 0.00 0.00
10:35 pm 22:35 Cloudy 49 9.6 44 6.8 83 83 Calm 30.00 1016 7 11 0.00 0.00
10:55 pm 22:55 Cloudy 49 9.6 44 6.8 83 83 Calm 30.03 1017 7 11 0.00 0.00
11:15 pm 23:15 Cloudy with Light Rain 49 9.6 44 6.7 82 82 Calm 30.03 1017 5 8 0.00 0.00
11:35 pm 23:35 Cloudy with Drizzle 49 9.6 44 6.8 83 83 Calm 30.03 1017 3 5 0.00 0.00
11:55 pm 23:55 Cloudy with Haze 49 9.6 44 6.9 83 83 Calm 30.03 1017 3 5 0.00 0.00

Powered by AerisWeather